West Wyalong Real Estate, NSW, 2671 Bland

Thinking about buying in West Wyalong? Now could not be a better time, with a whopping 2365 properties either residential or commercial there's certainly plenty to choose from.

The average property price for this area is $456,000 with prices in this suburb ranging from $54,000 to $1,750,000.

Distance to the coast is 330 Km.

West Wyalong Real Estate Market Outlook

In West Wyalong there has been a history of lower than average prices and demand, offering opportunities for investors or first home owners, especially in the context of the growth in working from home. Low average incomes in West Wyalong is reflected in smaller and lower quality accommodation. Over time this may change providsing long-term returns but in the short to medium term, prices are likely to be less than state averages. The slightly lower than average earnings from occupations in West Wyalong changes the housing and lifestyle preference. It is more a matter of what can be afforded rather than what would we prefer, leading to slower price increases over time. Low population density implies low demand and limits housing choices and price increases. Could be a good entry point for first home buyers needing to somehow get into the market. With very low industrial sector presence in West Wyalong the focus is on lifestyle, driving specific demand around facilities, services, and open space. Most people are employed in service sectors with a higher than average proportion being able to work from home. This may incease demand over the medium term.

About

For Sale

Nutrien Harcourts 82 UNGARIE RD, WEST WYALONG, NSW, 2671 $1,250,000 Ex GST
RayWhite 130 MAIN ST, WEST WYALONG, NSW, 2671 2 1 Solid Investment …

More

Local Schools


West Wyalong Public School

West Wyalong High School

St Mary's War Memorial School

(While the above schools are located with the suburb of West Wyalong there may also be nearby schools whose catchments cover this suburb)

Local Crime Stats


Average Local Climate by month


(mm)
RAIN
Min (°C)
TEMP
Max (°C)
TEMP
Min (%)
HUMIDITY
Max (%)
HUMIDITY
(m/sec)
WIND
(MJ/sq m)
SOLAR
Jan1.317.334.521.172.74.527.2
Feb2.016.931.828.677.14.423.7
Mar2.313.728.132.783.24.119.2
Apr1.28.823.339.890.73.115
May14.618.248.095.32.912.2
Jun1.42.514.560.797.72.89.3
Jul1.21.613.759.397.92.99.7
Aug1.21.31552.898.23.212.3
Sept1.53.619.542.794.93.617.2
Oct1.47.624.333.188.33.721.7
Nov1.611.528.127.2854.125
Dec1.314.431.522.076.44.428.0

source: Australian Government Bureau of Meteorology

Recently Sold

12-05-2022 $275,000 41 QUOTA DR WEST WYALONG 2671
06-05-2022 $229,000 24 SHIRE ST WEST WYALONG 2671
02-05-2022 $360,000 36 VICTORY ST WEST WYALONG 2671
27-04-2022 $420,000 175 RAILWAY RD WEST WYALONG 2671
27-04-2022 $150,000 86 CHURCH ST WEST WYALONG 2671
20-04-2022 $240,000 41 GRENFELL ST WEST WYALONG 2671
13-04-2022 $180,000 271 NEELD ST WEST WYALONG 2671
08-04-2022 $320,000 64 PERSEVERANCE ST WEST WYALONG 2671
08-04-2022 $245,000 76 CHURCH ST WEST WYALONG 2671
07-04-2022 $550,000 146 MAIN ST WEST WYALONG 2671
04-04-2022 $275,000 11 WOOTTEN ST WEST WYALONG 2671
24-03-2022 $360,000 16 MONASH ST WEST WYALONG 2671
24-03-2022 $275,000 6 NORTHCOTT ST WEST WYALONG 2671
17-03-2022 $47,500 8 GOLDEN ST WEST WYALONG 2671
14-03-2022 $340,000 91 MAIN ST WEST WYALONG 2671
11-03-2022 $340,000 28 OPERATOR ST WEST WYALONG 2671
01-03-2022 $190,000 55 MAIN ST WEST WYALONG 2671
28-02-2022 $325,000 186 MAIN ST WEST WYALONG 2671
25-02-2022 $250,000 77 BOLTES LANE WEST WYALONG 2671
14-02-2022 $1,600,000 68 MAIN ST WEST WYALONG 2671
07-02-2022 $275,000 53 COURT ST WEST WYALONG 2671
07-02-2022 $500,000 15 CHAUVEL ST WEST WYALONG 2671
03-02-2022 $400,000 154 MAIN ST WEST WYALONG 2671
03-02-2022 $400,000 154 MAIN ST WEST WYALONG 2671
03-02-2022 $400,000 154 MAIN ST WEST WYALONG 2671
03-02-2022 $400,000 156 MAIN ST WEST WYALONG 2671
01-02-2022 $235,000 95 OPERATOR ST WEST WYALONG 2671
31-01-2022 $320,000 124 MAIN ST WEST WYALONG 2671
27-01-2022 $420,000 33 VICTORY ST WEST WYALONG 2671
25-01-2022 $350,000 9 WOOTTEN ST WEST WYALONG 2671
21-01-2022 $177,000 99 CHURCH ST WEST WYALONG 2671
20-01-2022 $400,000 23 WELCOME ST WEST WYALONG 2671
19-01-2022 $420,000 80 PARK ST WEST WYALONG 2671
19-01-2022 $150,000 154 MAIN ST WEST WYALONG 2671
19-01-2022 $150,000 154 MAIN ST WEST WYALONG 2671
19-01-2022 $150,000 154 MAIN ST WEST WYALONG 2671
19-01-2022 $150,000 156 MAIN ST WEST WYALONG 2671
18-01-2022 $250,000 272 NEELD ST WEST WYALONG 2671
17-01-2022 $72,000 12 CHARLES PL WEST WYALONG 2671
14-01-2022 $405,000 44 COURT ST WEST WYALONG 2671
14-01-2022 $310,000 28 MAIN ST WEST WYALONG 2671
14-01-2022 $315,000 188 RAILWAY RD WEST WYALONG 2671
14-01-2022 $480,000 186 RAILWAY RD WEST WYALONG 2671
12-01-2022 $420,000 1 HYDE LANE WEST WYALONG 2671
22-12-2021 $86,500 78 MAIN ST WEST WYALONG 2671
22-12-2021 $80,000 39 VICTORY ST WEST WYALONG 2671
20-12-2021 $180,000 33 DUMARESQ ST WEST WYALONG 2671
20-12-2021 $150,000 79 MAIN ST WEST WYALONG 2671
17-12-2021 $385,000 8 GLADSTONE ST WEST WYALONG 2671
17-12-2021 $350,200 67 OPERATOR ST WEST WYALONG 2671

Residz covers 12m+ Australian properties and brings together a wealth of data to give you a better understanding of an area. From crime and schools to bush fire, flood risk and more. Begin your search for properties for sale or learn more about where you currently reside. Residz is an exciting next-generation Real Estate platform getting better by the day!